Find Starlink 6241

NORAD ID: 56409 Int'l Des: 2023-061 Owner: SPXS Country: US Constellation: starlink operational
LEOCIRCULAR

Live Position

Loading 3D Globe...

About Starlink 6241

Description loading...

Upcoming Passes

Passes for default location (London). Set your location on the main map for personalized predictions.

Altitude History

Loading altitude history...

Two-Line Element Set

1 56409U 23061AM 26106.34433220 .00000365 00000-0 23308-4 0 9996
2 56409 43.0060 334.3546 0001692 265.1223 94.9436 15.26745989162635
Epoch: Apr 16, 2026 • Age: 25 hours

Current Status

Altitude 485.7 km
Velocity 7.63 km/s
Sub-Earth Point 22.28°N, 5.8°E
Launch Date May 4, 2023
Age 2.9 years
Type internet

Technical Details

Classification Payload
Mass 305.00 kg
Dry Mass 290.00 kg
Total Mass 305.00 kg
Length 0.20 m
Diameter 2.80 m
Span 9.00 m
Shape Box + pan
Manufacturer SPXS
Bus Type Starlink
Phase Status In Orbit
Owner/State SPXS/US

Most Searched